Date String (YYYY-MM-DD hh:mm:ss) UTC,Instrument flags,Ambient pressure (hPa),Sample flow (lpm),Bypass flow (lpm),Sample temperature (°C),Ambient temperature (°C),ASC tube jacket temperature (°C),LED temperature (°C),Box temperature (°C),Sample RH (%),Span deviation,Mass concentration (μg/m³),Mass concentration (μg/m³),Mass concentration (μg/m³)
DateTimeUTC,F1_M11,P_M11,Q1_M11,Q2_M11,T1_M11,T2_M11,T3_M11,T4_M11,T5_M11,U1_M11,ZSPAN_M11,X0_M11,X2_M11,X1_M11
2022-02-26 03:00:00,,0830.4,5.01,0.00,22.0,21.2,00.0,31.2,23.6,07.5,-000.2,0022.70,0014.84,0013.95
2022-02-26 03:01:00,,0830.4,5.00,0.00,22.0,21.1,00.0,31.2,23.6,07.6,0000.0,0023.51,0014.69,0013.85
2022-02-26 03:02:00,,0830.4,4.99,0.00,22.0,21.4,00.0,31.2,23.7,07.6,0000.1,0023.03,0014.66,0013.84
2022-02-26 03:03:00,,0830.4,4.99,0.00,22.1,22.1,00.0,31.2,23.9,07.5,0000.1,0022.64,0014.68,0013.85
2022-02-26 03:04:00,,0830.4,5.00,0.00,22.2,22.8,00.0,31.2,24.2,07.5,0000.2,0022.70,0014.71,0013.86
2022-02-26 03:05:00,,0830.4,5.00,0.00,22.3,22.7,00.0,31.3,24.2,07.4,0000.3,0022.36,0014.68,0013.83
2022-02-26 03:06:00,,0830.5,4.99,0.00,22.3,22.5,00.0,31.3,24.2,07.5,0000.2,0021.92,0014.61,0013.76
2022-02-26 03:07:00,,0830.4,5.01,0.00,22.3,22.2,00.0,31.3,24.1,07.5,0000.3,0022.24,0014.54,0013.68
2022-02-26 03:08:00,,0830.5,5.01,0.00,22.2,22.0,00.0,31.3,24.0,07.5,0000.1,0022.44,0014.50,0013.64
2022-02-26 03:09:00,,0830.5,4.99,0.00,22.2,21.8,00.0,31.3,23.9,07.5,-000.1,0022.14,0014.41,0013.59
2022-02-26 03:10:00,,0830.5,5.00,0.00,22.2,21.7,00.0,31.3,23.8,07.6,-000.2,0021.96,0014.38,0013.57
2022-02-26 03:11:00,,0830.6,5.01,0.00,22.1,21.6,00.0,31.2,23.8,07.6,-000.4,0021.78,0014.40,0013.58
2022-02-26 03:12:00,,0830.5,4.99,0.00,22.1,21.5,00.0,31.2,23.7,07.6,-000.6,0020.70,0014.38,0013.56
2022-02-26 03:13:00,,0830.6,5.01,0.00,22.0,21.4,00.0,31.2,23.7,07.6,-000.8,0020.47,0014.26,0013.48
2022-02-26 03:14:00,,0830.5,5.01,0.00,22.0,21.3,00.0,31.2,23.6,07.6,-000.7,0020.51,0014.20,0013.41
2022-02-26 03:15:00,,0830.6,5.01,0.00,21.9,21.2,00.0,31.2,23.5,07.7,-000.8,0021.21,0014.26,0013.48
2022-02-26 03:16:00,,0830.6,5.00,0.00,21.9,21.1,00.0,31.1,23.5,07.7,-000.8,0021.27,0014.46,0013.66
2022-02-26 03:17:00,,0830.6,5.00,0.00,21.9,21.1,00.0,31.1,23.5,07.7,-000.9,0021.69,0014.70,0013.86
2022-02-26 03:18:00,,0830.6,4.98,0.00,21.9,21.4,00.0,31.1,23.6,07.7,-001.0,0021.61,0014.86,0014.03
2022-02-26 03:19:00,,0830.6,5.01,0.00,22.0,22.2,00.0,31.1,23.9,07.6,-000.7,0021.17,0015.06,0014.22
2022-02-26 03:20:00,,0830.5,5.01,0.00,22.2,22.9,00.0,31.2,24.1,07.6,-000.5,0021.34,0015.37,0014.53
2022-02-26 03:21:00,,0830.6,4.99,0.00,22.3,23.2,00.0,31.2,24.3,07.5,-000.5,0021.23,0015.52,0014.68
2022-02-26 03:22:00,,0830.6,5.01,0.00,22.3,22.9,00.0,31.2,24.3,07.5,-000.4,0021.55,0015.77,0014.91
2022-02-26 03:23:00,,0830.5,5.00,0.00,22.3,22.6,00.0,31.2,24.2,07.5,-000.6,0022.13,0016.13,0015.21
2022-02-26 03:24:00,,0830.6,5.01,0.00,22.3,22.4,00.0,31.2,24.1,07.5,-000.5,0022.67,0016.48,0015.50
2022-02-26 03:25:00,,0830.6,4.99,0.00,22.3,22.1,00.0,31.2,24.0,07.6,-000.3,0023.37,0016.80,0015.78
2022-02-26 03:26:00,,0830.6,5.01,0.00,22.2,22.0,00.0,31.2,23.9,07.5,-000.4,0022.90,0016.91,0015.92
2022-02-26 03:27:00,,0830.6,5.00,0.00,22.2,21.8,00.0,31.2,23.9,07.5,-000.4,0023.31,0017.01,0015.97
2022-02-26 03:28:00,,0830.6,5.00,0.00,22.2,21.7,00.0,31.2,23.9,07.6,-000.2,0023.32,0017.07,0016.03
2022-02-26 03:29:00,,0830.6,4.99,0.00,22.1,21.6,00.0,31.2,23.8,07.6,-000.1,0023.52,0017.17,0016.11
2022-02-26 03:30:00,,0830.7,5.00,0.00,22.1,21.5,00.0,31.2,23.8,07.5,-000.4,0023.79,0017.31,0016.21
2022-02-26 03:31:00,,0830.7,5.00,0.00,22.1,21.5,00.0,31.2,23.8,07.5,-000.3,0024.14,0017.28,0016.17
2022-02-26 03:32:00,,0830.7,5.00,0.00,22.1,21.4,00.0,31.2,23.7,07.5,-000.2,0024.37,0017.42,0016.31
2022-02-26 03:33:00,,0830.7,5.00,0.00,22.0,21.4,00.0,31.2,23.7,07.6,-000.2,0024.82,0017.51,0016.37
2022-02-26 03:34:00,,0830.7,5.00,0.00,22.0,21.3,00.0,31.1,23.7,07.5,0000.3,0025.37,0017.45,0016.36
2022-02-26 03:35:00,,0830.7,5.01,0.00,22.0,21.3,00.0,31.1,23.7,07.6,0000.4,0025.51,0017.47,0016.39
2022-02-26 03:36:00,,0830.7,5.00,0.00,22.0,21.3,00.0,31.1,23.6,07.6,0000.4,0025.25,0017.53,0016.42
2022-02-26 03:37:00,,0830.7,4.99,0.00,22.0,21.2,00.0,31.1,23.6,07.6,0000.6,0025.94,0017.63,0016.47
2022-02-26 03:38:00,,0830.7,4.99,0.00,22.0,21.4,00.0,31.1,23.6,07.6,0000.7,0025.77,0017.65,0016.53
2022-02-26 03:39:00,,0830.7,5.01,0.00,22.1,22.0,00.0,31.1,23.9,07.6,0000.5,0026.01,0017.72,0016.60
2022-02-26 03:40:00,,0830.7,4.99,0.00,22.2,22.7,00.0,31.2,24.1,07.5,0000.3,0026.15,0017.86,0016.69
2022-02-26 03:41:00,,0830.7,5.01,0.00,22.3,23.2,00.0,31.2,24.3,07.5,0000.3,0026.12,0017.91,0016.75
2022-02-26 03:42:00,,0830.7,5.00,0.00,22.4,23.0,00.0,31.2,24.3,07.4,0000.4,0025.89,0017.97,0016.81
2022-02-26 03:43:00,,0830.7,4.99,0.00,22.4,22.7,00.0,31.2,24.3,07.4,0000.2,0026.27,0018.03,0016.87
2022-02-26 03:44:00,,0830.7,5.01,0.00,22.4,22.5,00.0,31.3,24.2,07.5,0000.4,0026.32,0018.07,0016.92
2022-02-26 03:45:00,,0830.7,4.99,0.00,22.3,22.2,00.0,31.3,24.1,07.5,0000.3,0025.96,0018.19,0017.01
2022-02-26 03:46:00,,0830.7,5.01,0.00,22.3,22.0,00.0,31.3,24.0,07.5,0000.1,0026.28,0018.24,0017.05
2022-02-26 03:47:00,,0830.7,5.00,0.00,22.2,21.8,00.0,31.3,23.9,07.6,-000.1,0026.19,0018.29,0017.14
2022-02-26 03:48:00,,0830.8,5.01,0.00,22.2,21.6,00.0,31.2,23.8,07.6,-000.1,0025.70,0018.34,0017.21
2022-02-26 03:49:00,,0830.8,5.01,0.00,22.1,21.5,00.0,31.2,23.7,07.6,-000.0,0026.12,0018.41,0017.28
2022-02-26 03:50:00,,0830.8,5.00,0.00,22.0,21.4,00.0,31.2,23.6,07.7,0000.3,0026.12,0018.46,0017.36
2022-02-26 03:51:00,,0830.8,5.00,0.00,22.0,21.3,00.0,31.2,23.6,07.7,0000.2,0026.19,0018.55,0017.44
2022-02-26 03:52:00,,0830.8,5.00,0.00,22.0,21.2,00.0,31.2,23.5,07.7,0000.2,0026.37,0018.66,0017.52
2022-02-26 03:53:00,,0830.9,4.99,0.00,21.9,21.2,00.0,31.1,23.5,07.7,0000.1,0026.50,0018.75,0017.57
2022-02-26 03:54:00,,0830.9,5.00,0.00,21.9,21.1,00.0,31.1,23.4,07.8,0000.5,0026.41,0018.84,0017.62
2022-02-26 03:55:00,,0830.8,5.02,0.00,21.8,21.0,00.0,31.1,23.4,07.9,0000.4,0025.96,0018.79,0017.58
2022-02-26 03:56:00,,0830.9,4.98,0.00,21.8,21.4,00.0,31.1,23.5,08.1,0000.3,0025.80,0018.68,0017.50
2022-02-26 03:57:00,,0830.9,5.01,0.00,22.0,22.2,00.0,31.1,23.8,08.1,0000.4,0025.19,0018.61,0017.45
2022-02-26 03:58:00,,0830.9,5.01,0.00,22.1,22.9,00.0,31.1,24.1,08.1,0000.7,0025.23,0018.60,0017.44
2022-02-26 03:59:00,,0830.9,4.98,0.00,22.2,23.0,00.0,31.2,24.2,08.0,0001.0,0025.38,0018.58,0017.45
